Regional Weather Roundup
Issued by NWS

Home | Current Version | Previous Version | Text Only | Print | Product List | Glossary Off
Versions: 1 2 3 4 5 6 7 8 9 10 11 12 13 14 15 16 17 18 19 20 21 22 23 24 25 26 27 28

000
ASUS45 KCYS 201010
RWRWY

WYOMING REGIONAL WEATHER ROUNDUP
NATIONAL WEATHER SERVICE CHEYENNE WY
300 AM MST MON FEB 20 2017

NOTE:  "FAIR" INDICATES FEW OR NO CLOUDS BELOW 12,000 FEET
WITH NO SIGNIFICANT WEATHER AND/OR OBSTRUCTIONS TO VISIBILITY.

WYZ001-201100-
YELLOWSTONE NATIONAL PARK

CITY           SKY/WX    TMP DP  RH WIND       PRES   REMARKS
LK YELLOWSTONE   N/A     23  20  88 VRB3      29.89R
W YELLOWSTONE  NOT AVBL

$$
WYZ002>013-054>058-071-098>099-201100-
NORTHERN WYOMING

CITY           SKY/WX    TMP DP  RH WIND       PRES   REMARKS
JACKSON        CLOUDY    28  27  93 SW12      29.92S WCI  18
CODY           FAIR      38  18  44 W7        29.82R WCI  33
GREYBULL       FAIR      33  24  69 SE6       29.83R WCI  28
WORLAND        FAIR      31  29  92 CALM      29.84R
SHERIDAN       FAIR      36  24  62 SW10      29.76R WCI  28
BUFFALO        FAIR      38  29  70 W8        29.78R WCI  32
GILLETTE       MOCLDY    38  36  92 W12       29.75R WCI  30
HULETT         LGT RAIN  41  37  87 SW6       29.75R
NEWCASTLE      LGT RAIN  37  36  93 N17       29.75R WCI  28

$$
WYZ014>020-022>026-101>103-201100-
CENTRAL WYOMING

CITY           SKY/WX    TMP DP  RH WIND       PRES   REMARKS
BIG PINEY      CLOUDY    11   7  84 N6        29.97S WCI   1
PINEDALE       FAIR       9   7  92 CALM      29.98R
DUBOIS         PTSUNNY   25  18  74 NW12      29.88R WCI  14
LANDER         FAIR      31  16  54 SW7       29.87  WCI  24
RIVERTON       FAIR      30  19  63 NW10      29.87R WCI  21
CASPER         FAIR      34  15  46 NW13      29.85R WCI  25
DOUGLAS        FAIR      37  19  48 NW28G33   29.79R WCI  25

$$
WYZ021-027>030-104>119-201100-
SOUTHERN WYOMING

CITY           SKY/WX    TMP DP  RH WIND       PRES   REMARKS
EVANSTON       FAIR      28  22  78 S8        29.97R WCI  20
FORT BRIDGER   FAIR      29  22  75 W6        30.00R WCI  23
ROCK SPRINGS   FAIR      27  23  85 W5        29.96S WCI  22
DIXON            N/A     21  20  95 CALM      30.02S FOG
RAWLINS        FAIR      30  23  75 SW10      29.93F WCI  21
SARATOGA       FAIR      27  27 100 W5        29.95R WCI  21
LARAMIE        FAIR      31  17  56 W25G32    29.86R WCI  17
CHEYENNE       FAIR      38  13  35 NW16G24   29.82R WCI  29
TORRINGTON     FAIR      38  22  52 W9        29.76R WCI  31
PINE BLUFFS    FAIR      37  18  44 W22G28    29.82R WCI  27

$$




USA.gov is the U.S. government's official web portal to all federal, state and local government web resources and services.